星链-35757(STARLINK-35757)

导读

STARLINK-35757是美国SpaceX星链星座的卫星,于2025年10月31日发射入轨,属于星链网络扩容的组成部分。星链系统旨在为全球提供高速低延迟卫星互联网服务,该卫星延续星链设计,服务覆盖偏远地区、海运航空等场景,补充了星座的全球通信容量,进一步完善星链星座的服务覆盖与性能。

Basic Information
目录编号:
66270
目录名称:
STARLINK-35757
国际标识:
2025-247F
轨道中心:
EARTH
卫星名称:
星链-35757
卫星全名:
星链-35757(STARLINK-35757)
卫星状态:
在轨 (已飞行225 天)
发射日期:
2025-10-31 UTC
国别 :
美国 (US)
星等 :
--
Orbit Information
数据来源 国际轨道数据 AOE轨道数据
星历时间 2026-06-12T10:51:19+0800
1天前
查看轨道信息
2026-06-08T17:00:00+0800
5天前
查看轨道信息
半长轴 6840.824km 6840.94km
偏心率 0.000122 0.0001204
轨道倾角 53.159° 53.156°
近地点辐角 89.851° 75.374°
升交点赤经 111.244° 128.748°
平近点角 270.264° 112.213°
近地点 461.852km 461.979km
远地点 463.522km 463.627km
周期 93.847分钟 93.850分钟
每日圈数 15.344057 15.343666
Detailed Information
固有亮度:
5
最大亮度:
2.5
卫星平台:
Starlink V1.0
覆盖范围:
全球
运营商:
太空探索技术公司
运营商所在国:
美国
制造商(研发单位):
太空探索技术公司
制造商所在国:
美国
使用方式:
暂无
Satellite Introduction
Starlink 计划是 SpaceX 推出的全球卫星互联网项目,通过发射低轨道卫星,为全球尤其是偏远地区提供高速、低延迟的互联网服务。自 2019 年起,Starlink 已部署数千颗卫星,旨在缩小全球数字鸿沟,推动互联网普及。该项目还为军事、航空等行业提供通信支持,带来广泛经济效益。
2D Orbit Map
3D Orbit Map
Orbit Altitude Analysis Chart
Orbit Inclination Analysis Chart
Orbit Comprehensive Analysis Chart
View Comprehensive Chart